Regional Weather Roundup
Issued by NWS Sioux Falls, SD

Home | Current Version | Previous Version | Graphics & Text | Print | Product List | Glossary Off
Versions: 1 2 3 4 5 6 7 8 9 10 11 12 13 14 15 16 17 18 19 20 21 22 23 24 25 26 27 28 29 30 31 32 33 34 35 36 37 38 39 40 41 42 43 44 45 46 47 48 49 50

169
ASUS43 KFSD 191910
RWRFSD

WEATHER ROUNDUP FOR SE SOUTH DAKOTA/SW MINNESOTA/NW IOWA
NATIONAL WEATHER SERVICE SIOUX FALLS SD
100 PM CST THU JAN 19 2017

NOTE: "FAIR" INDICATES FEW OR NO CLOUDS BELOW 12,000 FEET WITH NO
SIGNIFICANT WEATHER AND OR OBSTRUCTIONS TO VISIBILITY.


SDZ038>040-050-052>070-192000-
SOUTHEAST SOUTH DAKOTA

CITY           SKY/WX    TMP DP  RH WIND       PRES   REMARKS
BROOKINGS      FOG       35  34  96 S14       29.62F VSB<1/4 WCI  26
CHAMBERLAIN    CLOUDY    41  39  91 SE15      29.54F
HURON          FOG       35  35 100 S13       29.59S VSB 1/2 WCI  26
MADISON        MOCLDY    34  34 100 S15         N/A  WCI  24
MITCHELL       FOG       38  38 100 SE21G29   29.60F VSB 1/4
SIOUX FALLS    FOG       36  36 100 S10       29.66F VSB 3/4
WINNER         FAIR      46  34  62 S16       29.52F
YANKTON        CLOUDY    39  37  93 SE10      29.63F
$$

MNZ071-072-080-081-089-090-097-098-192000-
SOUTHWEST MINNESOTA

CITY           SKY/WX    TMP DP  RH WIND       PRES   REMARKS
FAIRMONT       CLOUDY    36  34  92 S12       29.74F FOG
JACKSON        CLOUDY    36  34  93 S12       29.71F FOG
LUVERNE        CLOUDY    36  34  93 S10       29.67F FOG
MARSHALL       CLOUDY    39  37  92 S18       29.66F FOG
MONTEVIDEO     SUNNY     43  36  75 S10G16    29.67F
PIPESTONE      SNOW      37  36  93 S8        29.65F VSB<1/4
REDWOOD FALLS  SUNNY     38  34  85 SE14      29.69F FOG
TRACY          CLOUDY    39  38  94 S13G20    29.67F FOG
WINDOM         CLOUDY    39  37  93 S9        29.70F FOG
WORTHINGTON    FOG       36  36 100 S12       29.68F VSB 1/2
$$

IAZ001>003-012>014-020>022-031-032-NEZ013-014-SDZ071-192000-
NORTHWEST IOWA

CITY           SKY/WX    TMP DP  RH WIND       PRES   REMARKS
CHEROKEE       CLOUDY    39  39  97 SE8       29.71F FOG
DENISON        CLOUDY    41  39  93 SE6       29.69F FOG
ESTHERVILLE    CLOUDY    35  35 100 S14       29.73F FOG     WCI  26
LE MARS        CLOUDY    41  39  93 SE9       29.70F FOG
ORANGE CITY    CLOUDY    37  37 100 S10       29.68F FOG
SHELDON        CLOUDY    39  39 100 S13       29.67F FOG
SIOUX CITY     FOG       40  38  93 SE9       29.70F VSB 1
SPENCER        CLOUDY    37  36  96 SE14      29.72F FOG
STORM LAKE     CLOUDY    37  36  93 SE8       29.72F FOG
$$

ABBREVIATIONS USED IN REMARKS
   TC - TEMPERATURE IN CELSIUS
  WCI - WIND CHILL INDEX
   HX - HEAT INDEX
  VSB - VISIBILITY





USA.gov is the U.S. government's official web portal to all federal, state and local government web resources and services.